Left ArrowRight Arrow

38.83388, -104.82136

Hourly Observations for September 20, 2018

Temp ( °F °C ) Dew Point ( °F °C ) Humidity (%) Winds ( mph kmh ) Pressure ( in mb ) Visibility ( mi km ) Precip ( " mm )
12:54 am 00:54 Mostly Cloudy 64 17.8 50 10 60 60 NW 6 9 29.67 1005 10 16 0.00 0.00
1:54 am 01:54 Mostly Cloudy 64 17.8 50 10 60 60 SW 3 6 29.68 1005 10 16 0.00 0.00
2:54 am 02:54 Cloudy with Light Rain 62 16.7 51 10.6 67 67 Calm 29.72 1006 8 13 0.03 0.76
3:54 am 03:54 Mostly Cloudy 60 15.6 49 9.4 67 67 NNW 14 22 29.69 1006 10 16 0.01 0.25
4:54 am 04:54 Mostly Cloudy 63 17.2 44 6.7 50 50 NNW 8 13 29.68 1005 10 16 0.00 0.00
5:54 am 05:54 Cloudy with Light Rain 60 15.6 52 11.1 75 75 SSW 7 11 29.72 1006 10 16 0.00 0.03
6:54 am 06:54 Mostly Cloudy 59 15 52 11.1 78 78 ESE 7 11 29.72 1006 10 16 0.00 0.03
7:54 am 07:54 Mostly Cloudy 59 15 54 12.2 83 83 Calm 29.76 1008 10 16 0.00 0.00
8:54 am 08:54 Cloudy with Light Rain 60 15.6 53 11.7 78 78 E 18 30 29.76 1008 10 16 0.00 0.03
9:16 am 09:16 Cloudy 61 16.1 54 12.2 78 78 WSW 8 13 29.74 1007 10 16 0.00 0.03
9:54 am 09:54 Mostly Cloudy 64 17.8 51 10.6 63 63 E 9 15 29.78 1008 10 16 0.00 0.03
10:54 am 10:54 Mostly Cloudy 68 20 49 9.4 51 51 SSE 9 15 29.77 1008 10 16 0.00 0.00
11:54 am 11:54 Mostly Cloudy 71 21.7 48 8.9 44 44 S 12 19 29.76 1008 10 16 0.00 0.00
12:54 pm 12:54 Mostly Cloudy 73 22.8 47 8.3 40 40 SSE 10 17 29.74 1007 10 16 0.00 0.00
1:54 pm 13:54 Mostly Cloudy 75 23.9 45 7.2 34 34 SSE 13 20 29.68 1005 10 16 0.00 0.00
2:54 pm 14:54 Mostly Cloudy 78 25.6 44 6.7 30 30 SSE 9 15 29.68 1005 10 16 0.00 0.00
3:54 pm 15:54 Mostly Cloudy 79 26.1 42 5.6 27 27 SSE 10 17 29.68 1005 10 16 0.00 0.00
4:54 pm 16:54 Mostly Cloudy 78 25.6 43 6.1 29 29 SE 16 26 29.68 1005 10 16 0.00 0.00
5:54 pm 17:54 Mostly Cloudy 77 25 42 5.6 29 29 ESE 9 15 29.72 1007 10 16 0.00 0.00
6:54 pm 18:54 Mostly Cloudy 73 22.8 43 6.1 34 34 ESE 9 15 29.79 1009 10 16 0.00 0.00
7:54 pm 19:54 Mostly Cloudy 70 21.1 44 6.7 39 39 SSE 9 15 29.85 1011 10 16 0.00 0.00
8:54 pm 20:54 Partly Cloudy 67 19.4 49 9.4 53 53 Calm 29.92 1013 10 16 0.00 0.00
9:25 pm 21:25 Mostly Cloudy with Thunderstorms 64 17.8 51 10.6 63 63 NNW 8 13 29.80 1009 10 16 0.00 0.03
9:54 pm 21:54 Mostly Cloudy with Nearby Thunderstorms 65 18.3 55 12.8 70 70 Calm 29.95 1014 10 16 0.01 0.25
10:21 pm 22:21 Mostly Cloudy 62 16.7 48 8.9 60 60 N 7 11 29.85 1011 10 16 0.00 0.00
10:54 pm 22:54 Partly Cloudy 57 13.9 40 4.4 53 53 N 13 20 29.99 1016 10 16 0.00 0.00
11:54 pm 23:54 Mostly Clear 62 16.7 40 4.4 44 44 N 13 20 29.98 1015 10 16 0.00 0.00

Powered by Vaisala Xweather